Regional Weather Roundup
Issued by NWS Kansas City/Pleasant Hill, MO

Home | Current Version | Previous Version | Text Only | Print | Product List | Glossary On
Versions: 1 2 3 4 5 6 7 8 9 10 11 12 13 14 15 16 17 18 19 20 21 22 23 24 25 26 27 28 29 30 31 32 33 34 35 36 37 38 39 40 41 42 43 44 45 46 47 48 49 50
000
ASUS43 KEAX 010904
RWREAX

WEATHER ROUNDUP FOR EASTERN KANSAS AND NORTHWEST MISSOURI
NATIONAL WEATHER SERVICE KANSAS CITY/PLEASANT HILL MO
400 AM CDT WED OCT 01 2014

KSZ040-057-103>105-MOZ028-029-037-043-011000-
...KANSAS CITY METROPOLITAN AREA...

CITY           SKY/WX    TMP DP  RH WIND       PRES   REMARKS
K.C. INTL      CLOUDY    70  60  70 S16       29.73F
K.C. DOWNTOWN  MOCLDY    71  59  65 S14G21    29.73F
LEES SUMMIT    PTCLDY    67  58  72 S12G18    29.76F
OLATHE - IXD   MOCLDY    67  60  78 S14       29.75F
OLATHE - OJC   MOCLDY    66  60  81 S15       29.74F
LAWRENCE       CLOUDY    70  60  70 S12       29.72F

$$

MOZ001>008-011>017-020>025-030>033-038>040-044>046-053-054-011000-
...NORTHERN AND CENTRAL MISSOURI...

CITY           SKY/WX    TMP DP  RH WIND       PRES   REMARKS
ST. JOSEPH     TSTM      66  64  93 NW12      29.77R FOG
MOSBY          PTSUNNY   66  59  77 SE7       29.75F
WHITEMAN AFB   PTCLDY    65  56  70 S10       29.80F
CLINTON        PTCLDY    66  57  72 SE3       29.81F HAZE
SEDALIA        CLOUDY    66  55  67 S9        29.82F
WARSAW         NOT AVBL
CHILLICOTHE      N/A     68  58  70 S7        29.79F
MOBERLY        CLEAR     61  55  82 E5        29.84F
KIRKSVILLE     CLEAR     60 N/A N/A E6        29.84F

$$

MOZ041-047>049-056>058-063>065-088>090-097-011000-
...EASTERN AND SOUTHERN MISSOURI...

CITY           SKY/WX    TMP DP  RH WIND       PRES   REMARKS
ST. LOUIS INTL CLEAR     64  59  83 E8        29.90S
SPIRIT OF STL  CLEAR    N/A N/A N/A E3        29.87F
COLUMBIA       CLEAR     62  55  77 SE8       29.85F
JEFFERSON CITY CLEAR     60  55  83 SE6       29.84F
MEXICO         CLEAR    N/A N/A N/A E5        29.86F HAZE
ROLLA          CLEAR     64  52  64 SE10      29.86S
LEBANON        CLEAR     63  54  72 S6        29.87S
OSAGE BEACH    CLEAR     63  52  67 S5        29.85S
SPRINGFIELD    MOCLDY    66  56  70 S10       29.84F
BRANSON        MOCLDY    64  57  77 S6        29.87S
NEVADA         PTCLDY    64  59  82 SE8       29.80F HAZE
JOPLIN         PTCLDY    70  59  68 SE9       29.80F
WEST PLAINS    CLEAR     61  53  75 CALM      29.90F

$$

IAZ060-094-KSZ022-034>040-054-083-096-NEZ052-066-093-011000-
...KANSAS...SOUTHEAST NEBRASKA AND IOWA...

CITY           SKY/WX    TMP DP  RH WIND       PRES   REMARKS
TOPEKA         CLOUDY    72  64  76 SW7G18    29.73R
MANHATTAN      CLOUDY    67  63  87 S7        29.69S
EMPORIA        MOCLDY    68  63  84 S16       29.72F
CHANUTE        PTCLDY    69  61  75 SE14      29.75F
WICHITA        MOCLDY    72  65  78 S12       29.72S
OMAHA          LGT RAIN  63  60  90 SE10      29.70F
LINCOLN        CLOUDY    62  60  93 VRB6G21   29.72R
FALLS CITY     LGT RAIN  67  65  93 S9        29.71S
LAMONI         CLOUDY    63  61  93 E6        29.79F
DES MOINES     RAIN      62  59  90 E8        29.81F FOG

$$




USA.gov is the U.S. government's official web portal to all federal, state and local government web resources and services.